National Weather Service United States Department of Commerce

Observations from across/near northern Michigan

Marine Observations

Michigan Hourly Observations

 

Yesterday's high, low and precipitation reports from across northern Michigan

Northern Michigan Temperatures and Precipitation

 

Observation Text Products


000
SXUS83 KAPX 232226
OMRAPX

Marine Observations
National Weather Service Gaylord MI
626 PM EDT Sun Sep 23 2018

WIND DATA (KTS) WAVES
SITE DATE/TIME DIR SPEED GUST (FT) SITE NAME
--------------------------------------------------

Lake Superior/St Marys River

GRMM4 232140Z 100 18 20 Grand Marais
WFPM4 232140Z 120 15 19 Whitefish Point
PTIM4 232200Z 80 16 21 Point Iroquois
CYAM 232217Z 80 17 SOO (Canada)
KANJ 232155Z 70 10 17 Sault Ste Marie
SWPM4 232200Z 80 12 16 S.W. Pier
LTRM4 232200Z 90 11 17 Little Rapids
RCKM4 232200Z 60 12 15 Rock Cut
WNEM4 232200Z 70 5 8 West Nebish Island

Lake Huron

DTLM4 232200Z 80 16 19 DeTour Village
KDRM 232215Z 60 7 20 Drummond Island
KMCD 232215Z 80 9 22 Mackinac Island
MACM4 232200Z 90 19 23 Mackinac City
KSLH 232215Z 80 11 15 Cheboygan Airport
CYGM4 232155Z 070 7 16 Cheboygan Marina
SRLM4 232130Z 60 23 Spectacle Reef Light
KPZQ 232215Z 80 12 18 Rogers City
PRIM4 232155Z 070 21 26 Presque Isle Light
KAPN 232154Z 80 12 Alpena Guard Base
APNM4 232210Z 100 16 21 Alpena Harbor Light
SPTM4 232155Z 100 8 Sturgeon Point Light
KOSC 232215Z 100 7 Oscoda
GSLM4 232140Z 70 8 10 Gravelly Shoals
45003 232150Z 70 17 21 4.3 Northern Lake Huron Buoy
45008 232150Z 20 8 10 0.3 Central Lake Huron Buoy
KP58 232151Z 60 10 Port Hope

Lake Michigan

KISQ 232215Z 110 10 17 Manistique
PNLM4 232200Z 100 20 26 Port Inland
NABM4 232140Z 80 13 17 Naubinway
WSLM4 232200Z 80 30 White Shoal Light
KSJX 232216Z 80 12 17 St James
KPLN 232154Z 90 13 21 Pellston
KMGN 232215Z 60 14 Harbor Springs
KCVX 232215Z 70 12 Charlevoix
GTLM4 232140Z 50 8 11 Grand Traverse Light
KTVC 232153Z 30 5 Traverse City
KFKS 232215Z 360 4 Frankfort
BSBM4 232140Z 340 5 8 Big Sable Point
LDTM4 232200Z 290 6 8 Ludington
KLDM 232215Z 350 3 Ludington Airport


000
ASUS43 KDTX 232210
RWRMI
MICHIGAN HOURLY REGIONAL WEATHER ROUNDUP
NATIONAL WEATHER SERVICE DETROIT/PONTIAC MI
ISSUED BY NATIONAL WEATHER SERVICE GRAND RAPIDS MI
600 PM EDT SUN SEP 23 2018

NOTE: "FAIR" INDICATES FEW OR NO CLOUDS BELOW 12,000 FEET WITH NO
SIGNIFICANT WEATHER AND/OR OBSTRUCTION TO VISIBILITY.

MIZ047>049-052>055-059>063-066>070-074>076-081>083-232300-
SOUTHEAST LOWER MICHIGAN

CITY SKY/WX TMP DP RH WIND PRES REMARKS
ADRIAN FAIR 67 51 56 SE8 30.17S
ALMA FAIR 69 45 41 E7 30.18S
ANN ARBOR FAIR 68 50 52 E9 30.17R
BAD AXE FAIR 63 49 59 NE9 30.22R
DETROIT CITY FAIR 68 45 43 SE5 30.19R
DETROIT FAIR 70 49 47 E8 30.18R
FLINT FAIR 68 49 50 SE8 30.18S
GROSSE ILE FAIR 67 55 66 S6 30.17S
HILLSDALE FAIR 70 46 43 E7 30.16R
HOWELL FAIR 69 46 44 E8 30.18R

CITY SKY/WX TMP DP RH WIND PRES REMARKS
JACKSON FAIR 71 47 42 E8 30.16S
LANSING FAIR 70 51 51 E8 30.17S
MASON FAIR 72 45 38 SE7 30.17R
MONROE FAIR 65 55 69 SE8 30.17S
MT. CLEMENS MOSUNNY 68 47 46 E5 30.17S
PONTIAC FAIR 68 46 45 E8 30.18R
PORT HOPE N/A 62 51 67 NE12 30.22S
PORT HURON FAIR 64 48 55 N6 30.21R
TRI CITIES FAIR 68 49 50 NE10 30.20R
YPSILANTI FAIR 72 50 45 E8 30.18S
$$
MIZ043>046-050>051-056>058-064>065-071>073-077>080-232300-
SOUTHWEST LOWER MICHIGAN

CITY SKY/WX TMP DP RH WIND PRES REMARKS
BATTLE CREEK FAIR 73 47 39 E10 30.15S
BENTON HARBOR FAIR 68 55 63 NW3 30.12S
BIG RAPIDS FAIR 68 46 44 E9G18 30.17S
COLDWATER FAIR 70 48 45 E5 30.15S
HOLLAND FAIR 70 50 49 E9 30.14S
GRAND RAPIDS FAIR 71 51 49 NE9 30.15S
KALAMAZOO FAIR 73 47 39 VRB6 30.15S
MARSHALL FAIR 74 43 33 E7 30.14S
MOUNT PLEASANT FAIR 69 43 39 E7 30.18S
MUSKEGON FAIR 71 48 43 W5 30.15S
STURGIS FAIR 71 49 44 E7 30.14S
$$
MIZ016>042-232300-
NORTHERN LOWER MICHIGAN

CITY SKY/WX TMP DP RH WIND PRES REMARKS
ALPENA PTSUNNY 58 51 78 E14 30.26R
BEAVER ISLAND CLOUDY 58 52 81 E13G18 30.23R
BELLAIRE PTSUNNY 66 52 59 N5 30.19S
CADILLAC FAIR 67 44 42 E6 30.18R
CHARLEVOIX FAIR 61 53 74 NE13 30.24R
GAYLORD PTSUNNY 64 53 67 NE12G18 30.21R
HOUGHTON LAKE FAIR 68 45 43 E6 30.20S
MANISTEE FAIR 66 54 65 NW8 30.16S
OSCODA FAIR 62 48 58 E9 30.23S
PELLSTON CLOUDY 54 49 83 E15G24 30.26R
TRAVERSE CITY FAIR 69 52 54 NE6 30.16F
LUDINGTON FAIR 65 54 65 NW5 30.16S
$$
MIZ007>008-015-232300-
EASTERN UPPER MICHIGAN

CITY SKY/WX TMP DP RH WIND PRES REMARKS
KINROSS CLOUDY 45 40 82 E13 30.30R
MACKINAC ISLAN CLOUDY 50 43 77 E14G23 30.27S
NEWBERRY CLOUDY 51 47 87 NE13G18 30.26R
S. S. MARIE CLOUDY 44 38 79 E12G20 30.31R
$$
MIZ004>006-011>014-085-232300-
CENTRAL UPPER MICHIGAN

CITY SKY/WX TMP DP RH WIND PRES REMARKS
MANISTIQUE FAIR 62 47 59 SE9 30.20S
ESCANABA FAIR 62 50 64 SE9 30.18F
MENOMINEE FAIR 65 54 67 E10 30.16F
SAWYER-GWINN CLOUDY 48 45 87 NE10 30.21F
$$
MIZ001>003-009>011-084-232300-
WESTERN UPPER MICHIGAN

CITY SKY/WX TMP DP RH WIND PRES REMARKS
IRON MOUNTAIN FAIR 64 52 64 E8 30.15S
HOUGHTON CLOUDY 44 41 89 E14G28 30.23F FOG
COPPER HARBOR N/A 44 40 85 SE13G22 30.27S
IRONWOOD FAIR 53 47 79 E16G22 30.11F
$$

ABBREVIATIONS USED IN REMARKS
TC - TEMPERATURE IN CELSIUS
WCI - WIND CHILL INDEX
HX - HEAT INDEX
VSB - VISIBILITY




000
ASUS63 KAPX 231354
RTPAPX


Eastern Upper/Northern Lower Michigan Temperature and Precip Summary
National Weather Service Gaylord MI
954 AM EDT Sun Sep 23 2018

Yesterday`s High Temperature...12 hour Low ending 8 am EDT
24 hour Precipitation/Snowfall ending 8 am EDT
Snow Depth observed at 8 am EDT

.BR APX 0923 ES DH00/TAIRZX/DH07/TAIRZP/PPDRZZ/SFDRZZ/SDIRZZ
:..................................................................
: MAX MIN 24 HR 24 HR SNOW
:ID LOCATION TEMP TEMP PRECIP SNOW DEPTH
:..................................................................
ANJ : Sault Ste Marie : 63 / 49 / 0.01 / 0.0 / 0
APN : Alpena : 63 / 41 / 0.00 / 0.0 / 0
HTL : Houghton Lake : 61 / 40 / 0.00 / 0.0 / 0
PLN : Pellston : 62 / 41 / 0.00 / /
TVC : Traverse City : 65 / 46 / 0.00 / /
GLR : Gaylord : 60 / 40 / 0.00 / /
.END

Cooperative Observations
Temperature/Precipitation/Snowfall values are for 24 hour period
ending at observation time. Snow Depth at obs time.

...................................................................
OBS MAX MIN SNOW SNOW
ID LOCATION TIME TEMP TEMP PCPN FALL DEPTH
...................................................................
BEUM4: Beulah 7SSW :DH0800/ 63 / 46 / 0.00 / 0.0 / 0.0
CHRM4: Charlevoix :DH0800/ 62 / 45 / 0.00 / 0.0 / 0.0
DTVM4: Detour Village :DH0800/ 61 / 50 / 0.00 / 0.0 / 0.0
EJNM4: East Jordan 2NW :DH0830/ 61 / 43 / 0.00 / 0.0 / 0.0
ETWM4: East Tawas :DH0830/ 61 / 39 / 0.00 / 0.0 / 0.0
GAYM4: Gaylord :DH0800/ 59 / 35 / 0.00 / 0.0 / 0.0
APXM4: Gaylord 9SSW (NWS) :DH0800/ 62 / 42 / 0.00 / 0.0 / 0.0
GLNM4: Glennie 2SE :DH0730/ 60 / 37 / 0.00 / 0.0 / 0.0
HRSM4: Harrisville 2NNE :DH0800/ 55 / 42 / 0.00 / 0.0 / 0.0
LEWM4: Lewiston 3W :DH0800/ 60 / 39 / 0.00 / 0.0 / 0.0
LUPM4: Lupton 1S :DH0800/ 63 / 35 / 0.00 / 0.0 / 0.0
MRAM4: Moran :DH0800/ 62 / 35 / 0.00 / 0.0 / 0.0
PETM4: Petoskey :DH0800/ 60 / 42 / 0.00 / 0.0 / 0.0
SSMM4: Sault Ste Marie :DH0800/ 64 / 38 / 0.01 / 0.0 / 0.0
STIM4: St Ignace :DH0700/ 61 / 40 / 0.00 / 0.0 / 0.0
STAM4: Standish 4NE :DH0800/ 60 / 38 / 0.00 / 0.0 / 0.0
TCMM4: Traverse City Munson :DH0600/ 62 / 43 / 0.00 / 0.0 / 0.0
WBRM4: West Branch 3SE :DH0800/ 63 / 37 / 0.00 / 0.0 / 0.0

These data are preliminary and have not undergone final quality
control by the National Centers for Environmental Information.
Therefore...these data are subject to revision. Final
and certified climate data can be accessed at www.ncdc.noaa.gov.

&&

The following are supplemental temperature and precipitation data.
This includes data which are received from non-National Weather
Service maintained observing systems...as well as reports from
public weather spotters. Data is only partially quality controlled
and is not suitable for official climatological records.

.BR APX 0923 ES DH00/TAIRZX/DH07/TAIRZP
:
:Automated Temperature Data--Yesterday High/12 hr Low ending 8 am EDT
:..................................................................
: MAX MIN
:ID LOCATION TEMP TEMP
:..................................................................
:
ERY : Newberry : 61 / 51
CIU : Kinross : 61 / 51
MCD : Mackinac Island : 58 / 54
DRM : Drummond Island : 58 / 44
SJX : Beaver Island : 61 / 50
SLH : Cheboygan : 61 / 42
PZQ : Rogers City : 58 / 46
CVX : Charlevoix : 61 / 49
MGN : Harbor Springs : 61 / 47
ACB : Bellaire : 62 / 40
FKS : Frankfort : 60 / 44
MBL : Manistee : 62 / 40
CAD : Cadillac : 62 / 33
Y31 : West Branch : 62 / 33
OSC : Oscoda : 58 / 39
LDM : Ludington : 61 / 41
RQB : Big Rapids : 63 / 39
MOP : Mount Pleasant : 64 / 42
IKW : Midland : 64 / 39
.END

U.S. Forest Service Remote Automated Weather Stations (RAWS)
Data is only partially quality controlled
Yesterday`s High/12 hour Low Temperature ending 8 am EDT
Maximum Relative Humidity over past 12 hours
12/24 hour Precipitation ending 8 am EDT
...................................................................
MAX MIN MAX 12 HR 24 HR
ID LOCATION TEMP TEMP RH PRECIP PRECIP
...................................................................
AGRM4: Alger RAWS : M / M / M / M / M
ATAM4: Atlanta RAWS : 63 / 37 / 97 / 0.00 / 0.00
BCYM4: Barton City RAWS : 64 / 37 / 99 / 0.00 / 0.00
GYGM4: Grayling RAWS : 63 / 36 / 99 / 0.00 / 0.00
INDM4: Indian River RAWS : 66 / 40 / 96 / 0.00 / 0.00
MMOM4: Mio RAWS : 64 / 34 / 98 / 0.00 / 0.00
MTNM4: Manton RAWS : M / M / M / M / M
NMIM4: N Manitou Island : 61 / 47 / 93 / 0.00 / 0.00
RACM4: Raco RAWS : 60 / 51 / 96 / 0.00 / 0.00
REXM4: Rexton RAWS : 62 / 49 / 100 / 0.00 / 0.00
RSCM4: Roscommon RAWS : 64 / 30 / M / 0.00 / 0.00
RYDM4: Rudyard RAWS : 62 / 50 / 97 / 0.03 / 0.03
SBDM4: The Bear RAWS : 61 / 43 / 99 / 0.00 / 0.00
SCKM4: Silver Creek RAWS : 65 / 34 / 100 / 0.00 / 0.00
WLLM4: Wellston RAWS : 64 / 39 / 98 / 0.00 / 0.00

The following are precipitation reports received by the National
Weather Service in Gaylord...valid for the time period ending
around 8 am EDT. All reports have been recorded in inches.

Spotter reports from Eastern Upper and Northern Lower Michigan:

WATER TIME SNOW
LOCATION RAIN SNOW EQUIV PERIOD DEPTH

No Current Reports

CoCoRaHS Precipitation Reports
Values are for the previous 24 hours ending around 8 am EDT.
All reports have been recorded in inches.

SNOW SNOW WATER
STATION LOCATION PCPN FALL DEPTH EQUIV

MICP07 : DRUMMOND 2.9 NE * : 0.02 / MM / MM / MM
MIOG06 : WEST BRANCH 2.1 SSW * : T / MM / MM / MM
MICX07 : EAST JORDAN 2.1 NNW * : 0.00 / 0.0 / 0.0 / 0.00
MICF09 : GRAYLING 15.8 NE * : 0.00 / 0.0 / 0.0 / MM
MIIC03 : EAST TAWAS 0.8 WSW * : 0.00 / 0.0 / 0.0 / 0.00
MIMN06 : WELLSTON 3.9 WNW * : 0.00 / 0.0 / 0.0 / 0.00
MIOT04 : GAYLORD 1.7 WNW * : 0.00 / 0.0 / 0.0 / MM
MIAP02 : OSSINEKE 1.0 NNE * : 0.00 / 0.0 / MM / MM
MICX04 : CHARLEVOIX 4.3 SSE * : 0.00 / 0.0 / MM / MM
MICB07 : MACKINAW CITY 1.1 ENE * : 0.00 / 0.0 / MM / MM
MIEM05 : HARBOR SPRINGS 0.7 ENE * : 0.00 / MM / MM / MM
MIGT21 : KINGSLEY 2.7 ENE * : 0.00 / MM / MM / MM
MILL01 : NORTHPORT 5.0 SSW * : 0.00 / MM / MM / MM
MIMC04 : ST. IGNACE 0.5SE * : 0.00 / 0.0 / MM / MM
MIOD03 : LUZERNE 2.4 NE * : 0.00 / 0.0 / MM / MM
MIPI01 : ROGERS CITY 0.2 WSW * : 0.00 / 0.0 / MM / MM
:
.END

$$